Weather in Bekrino

Russia / Smolensk Oblast     55°13′29″N   35°01′50″E
В апреле 2022 года жителям России запретили посещать сайт meteo.paraplan.net по решению Генеральной прокуратуры. Аудитория сайта уменьшилась в 10 раз. Владельцы сайта не видят смысла в поддержке погодного сервера в таких условиях. Сайт будет закрыт в октябре.
temp.,
°C
wind,
m/s
gust,
m/s
humid.,
%
clouds,
%
prec.,
mm/h
press.,
hPa
HPBL,
m
5 october, wed
wed500:00+5s3596100 0.9 1008942
03:00+5sw2596100 2.2 1009524
06:00+5wnw2595100 1.4 1010932
09:00+5w4793100 1.9 1012554
12:00+6w468895 0.1 1014713
15:00+6w379294 0.4 1016599
18:00+6w2692100 0.2 1017238
21:00+6w379686 0.3 1018299
6 october, thu
thu600:00+5wsw2697100 0.0 1019153
03:00+7sw2599100 0.2 1018208
06:00+7sw259998 0.1 1019193
09:00+8sw369473 0.1 1018244
12:00+9sw3794100 0.0 1018332
15:00+13sw478077 0.0 1017798
18:00+11sw410911 0.0 1016322
21:00+9sw413945 0.0 1016414
7 october, fri
fri700:00+10wsw41394100 0.0 1017497
03:00+10wnw5139231 0.0 1018702
06:00+10wnw61179100 0.0 1020812
09:00+9wnw5983100 0.1 1022999
12:00+10w51078100 0.1 10231169
15:00+13w596615 0.1 10231167
18:00+9wsw38820 0.0 1024219
21:00+7wsw39955 0.0 1025222
8 october, sat
sat800:00+6wsw37965 0.0 1025149
03:00+6sw27965 0.0 1025144
06:00+5sw37978 0.0 1025143
09:00+8sw399082 0.0 1024261
12:00+12sw486985 0.0 1023647
15:00+13ssw4864100 0.0 1020885
18:00+10ssw41178100 0.0 1019472
21:00+9ssw5148598 0.0 1019491
9 october, sun
sun900:00+8ssw41487100 0.0 1018466
03:00+8ssw51387100 0.0 1016448
06:00+8ssw41285100 0.0 1015490
09:00+8sw3892100 0.3 1015296
12:00+9sw3894100 1.6 1016325
15:00+11w4779100 2.0 1016912
18:00+8wnw488747 0.1 1018378
21:00+8wnw4978100 0.1 1020393